Kerkyra, Greece

12:09 PM EET on January 19, 2018 (GMT +0200)
Ioannis Kapodistrias

Weather History for LGKR - March, 2013

Change the Weather History Date:

Saturday, March 2, 2013

  Actual Average Record
Temperature  
Mean Temperature 50 °F -  
Max Temperature 57 °F 61 °F 68 °F (2002)
Min Temperature 42 °F 44 °F 37 °F (1997)
Degree Days  
Heating Degree Days 16    
Moisture  
Dew Point 47 °F    
Average Humidity 90    
Maximum Humidity 100    
Minimum Humidity 72    
Precipitation  
Precipitation 0.00 in 0.13 in - ()
Sea Level Pressure  
Sea Level Pressure 29.87 in    
Wind  
Wind Speed 1 mph ()    
Max Wind Speed 6 mph    
Max Gust Speed -    
Visibility 6.4 miles    
Events      
Averages and records for this station are not official NWS values.
T = Trace of Precipitation, MM = Missing Value Source: Averaged Metar Reports

Daily Weather History Graph

Daily Weather History Graph

Search for Another Location

Airport or City:

Trip Planner

Search our weather history database for the weather conditions in past years. The results will help you decide how hot, cold, wet, or windy it might be!

Date:

Astronomy

Mar. 02, 2013 Rise Set
Actual Time 7:11 AM EET 6:33 PM EET
Civil Twilight 6:44 AM EET 7:00 PM EET
Nautical Twilight 6:13 AM EET 7:31 PM EET
Astronomical Twilight 5:42 AM EET 8:03 PM EET
Moon 11:51 PM EET (3/2) 9:28 AM EET (3/2)
Length of Visible Light 12h 15m
Length of Day
11h 21m
Waning Gibbous, 77% of the Moon is Illuminated
Mar 2
Waning Gibbous
Mar 4
Last Quarter
Mar 11
New
Mar 19
First Quarter
Mar 27
Full

Hourly Weather History & Observations

Time (EET) Temp. Dew Point Humidity Pressure Visibility Wind Dir Wind Speed Gust Speed Precip Events Conditions
12:20 AM 44.6 °F 44.6 °F 100% 30.01 in 6.2 mi Calm Calm - N/A   Mostly Cloudy
12:50 AM 44.6 °F 44.6 °F 100% 29.98 in 6.2 mi Calm Calm - N/A   Mostly Cloudy
1:20 AM 44.6 °F 44.6 °F 100% 29.98 in 6.2 mi Calm Calm - N/A   Mostly Cloudy
1:50 AM 44.6 °F 44.6 °F 100% 29.98 in 6.2 mi Calm Calm - N/A   Mostly Cloudy
2:00 AM 45 °F 44 °F 96% 30.00 in 6 mi Calm Calm - -   Scattered Clouds
2:20 AM 44.6 °F 44.6 °F 100% 29.98 in 6.2 mi Calm Calm - N/A   Mostly Cloudy
2:50 AM 44.6 °F 44.6 °F 100% 29.98 in 6.2 mi Calm Calm - N/A   Mostly Cloudy
3:20 AM 44.6 °F 44.6 °F 100% 29.98 in 6.2 mi Calm Calm - N/A   Mostly Cloudy
3:50 AM 44.6 °F 44.6 °F 100% 29.98 in 6.2 mi Calm Calm - N/A   Mostly Cloudy
4:20 AM 44.6 °F 44.6 °F 100% 29.98 in 6.2 mi Calm Calm - N/A   Mostly Cloudy
4:50 AM 44.6 °F 44.6 °F 100% 29.95 in 6.2 mi Calm Calm - N/A   Mostly Cloudy
5:20 AM 44.6 °F 44.6 °F 100% 29.95 in 6.2 mi Calm Calm - N/A   Mostly Cloudy
5:50 AM 42.8 °F 42.8 °F 100% 29.92 in 6.2 mi Calm Calm - N/A   Mostly Cloudy
6:20 AM 42.8 °F 42.8 °F 100% 29.92 in 6.2 mi Calm Calm - N/A   Mostly Cloudy
6:50 AM 42.8 °F 42.8 °F 100% 29.92 in 6.2 mi Calm Calm - N/A   Mostly Cloudy
7:20 AM 42.8 °F 42.8 °F 100% 29.92 in 6.2 mi Calm Calm - N/A   Overcast
7:50 AM 44.6 °F 42.8 °F 93% 29.89 in 6.2 mi Calm Calm - N/A   Overcast
8:00 AM 44 °F 44 °F 97% 29.91 in 12 mi Calm Calm - -   Overcast
8:20 AM 46.4 °F 44.6 °F 93% 29.89 in 6.2 mi Calm Calm - N/A   Overcast
8:50 AM 46.4 °F 42.8 °F 87% 29.89 in 6.2 mi Calm Calm - N/A   Overcast
9:20 AM 46.4 °F 42.8 °F 87% 29.89 in 6.2 mi Calm Calm - N/A   Overcast
9:50 AM 46.4 °F 44.6 °F 93% 29.89 in 6.2 mi Calm Calm - N/A   Mostly Cloudy
10:20 AM 48.2 °F 46.4 °F 93% 29.89 in 6.2 mi Calm Calm - N/A   Mostly Cloudy
10:50 AM 50.0 °F 48.2 °F 94% 29.89 in 6.2 mi Calm Calm - N/A   Mostly Cloudy
11:20 AM 51.8 °F 50.0 °F 94% 29.89 in 6.2 mi Calm Calm - N/A   Mostly Cloudy
11:50 AM 53.6 °F 50.0 °F 88% 29.89 in 6.2 mi Calm Calm - N/A   Overcast
12:20 PM 53.6 °F 50.0 °F 88% 29.89 in - Calm Calm - N/A   Clear
12:50 PM 55.4 °F 48.2 °F 77% 29.89 in 6.2 mi Calm Calm - N/A   Overcast
1:20 PM 55.4 °F 48.2 °F 77% 29.86 in 6.2 mi Calm Calm - N/A   Overcast
1:50 PM 57.2 °F 50.0 °F 77% 29.86 in 6.2 mi ENE 4.6 mph - N/A   Overcast
2:00 PM 56 °F 49 °F 72% 29.87 in 12 mi ENE 4.6 mph - -   Overcast
2:20 PM 57.2 °F 50.0 °F 77% 29.86 in 6.2 mi ENE 5.8 mph - N/A   Overcast
2:50 PM 57.2 °F 50.0 °F 77% 29.80 in 6.2 mi East 5.8 mph - N/A   Overcast
3:20 PM 57.2 °F 50.0 °F 77% 29.80 in 6.2 mi East 4.6 mph - N/A   Overcast
3:50 PM 57.2 °F 48.2 °F 72% 29.80 in 6.2 mi East 4.6 mph - N/A   Overcast
4:20 PM 57.2 °F 50.0 °F 77% 29.80 in 6.2 mi Calm Calm - N/A   Overcast
4:50 PM 57.2 °F 48.2 °F 72% 29.77 in 6.2 mi East 5.8 mph - N/A   Overcast
5:20 PM 57.2 °F 48.2 °F 72% 29.77 in 6.2 mi East 5.8 mph - N/A   Overcast
5:50 PM 57.2 °F 48.2 °F 72% 29.77 in 6.2 mi Calm Calm - N/A   Overcast
6:20 PM 55.4 °F 50.0 °F 82% 29.77 in 6.2 mi SW 4.6 mph - N/A   Overcast
6:50 PM 53.6 °F 50.0 °F 88% 29.77 in 6.2 mi Calm Calm - N/A   Overcast
7:20 PM 53.6 °F 50.0 °F 88% 29.77 in 6.2 mi Calm Calm - N/A   Overcast
7:50 PM 53.6 °F 50.0 °F 88% 29.77 in 6.2 mi Calm Calm - N/A   Mostly Cloudy
8:00 PM 53 °F 50 °F 84% 29.79 in 6 mi Calm Calm - -   Partly Cloudy
8:20 PM 53.6 °F 50.0 °F 88% 29.77 in 6.2 mi Calm Calm - N/A   Mostly Cloudy
8:50 PM 51.8 °F 48.2 °F 88% 29.77 in 6.2 mi Calm Calm - N/A   Mostly Cloudy
9:20 PM 51.8 °F 48.2 °F 88% 29.77 in 6.2 mi Calm Calm - N/A   Mostly Cloudy
9:50 PM 51.8 °F 50.0 °F 94% 29.77 in 6.2 mi NW 4.6 mph - N/A   Mostly Cloudy
10:20 PM 51.8 °F 50.0 °F 94% 29.80 in 6.2 mi Calm Calm - N/A   Mostly Cloudy
10:50 PM 51.8 °F 48.2 °F 88% 29.80 in 6.2 mi Calm Calm - N/A   Mostly Cloudy
11:20 PM 50.0 °F 48.2 °F 94% 29.83 in 6.2 mi Calm Calm - N/A   Overcast
11:50 PM 51.8 °F 48.2 °F 88% 29.80 in 6.2 mi Calm Calm - N/A   Overcast